Weather History for Pinedale, WY

Change the Weather History Date:

Tuesday, December 4, 2012

  Actual Average (KBPI) Record (KBPI)
Temperature  
Mean Temperature 21 °F 15 °F  
Max Temperature 30 °F 28 °F 48 °F (2007)
Min Temperature 12 °F 2 °F -31 °F (1992)
Degree Days  
Heating Degree Days 44 50  
Month to date heating degree days 198  
Since 1 July heating degree days 3013  
Cooling Degree Days 0 0  
Month to date cooling degree days 0  
Year to date cooling degree days 35  
Moisture  
Dew Point 18 °F    
Average Humidity 82    
Maximum Humidity 93    
Minimum Humidity 60    
Precipitation  
Precipitation 0.00 in 0.01 in 0.50 in (1978)
Month to date precipitation 0.04  
Year to date precipitation 6.22  
Sea Level Pressure  
Sea Level Pressure 30.30 in    
Wind  
Wind Speed 4 mph (WNW)    
Max Wind Speed 7 mph    
Max Gust Speed -    
Visibility 10 miles    
Events Snow    
T = Trace of Precipitation, MM = Missing Value Source: NWS Daily Summary

Daily Weather History Graph

Daily Weather History Graph

Search for Another Location

Airport:

Trip Planner

Search our weather history database for the weather conditions in past years. The results will help you decide how hot, cold, wet, or windy it might be!

Date:

Astronomy

Dec. 04, 2012 Rise Set
Actual Time 7:33 AM MST 4:45 PM MST
Civil Twilight 7:01 AM MST 5:17 PM MST
Nautical Twilight 6:26 AM MST 5:52 PM MST
Astronomical Twilight 5:52 AM MST 6:26 PM MST
Moon 10:41 PM MST (12/4) 11:24 AM MST (12/4)
Length of Visible Light 10h 15m
Length of Day
9h 11m
Waning Gibbous, 69% of the Moon is Illuminated
Dec 4
Waning Gibbous
Dec 6
Last Quarter
Dec 13
New
Dec 19
First Quarter
Dec 28
Full

Hourly Weather History & Observations

Time (MST) Temp. Windchill Dew Point Humidity Pressure Visibility Wind Dir Wind Speed Gust Speed Precip Events Conditions
12:15 AM 12.2 °F 1.7 °F 10.4 °F 92% 30.29 in 10.0 mi NW 6.9 mph - N/A   Clear
12:35 AM 14.0 °F 6.5 °F 12.2 °F 93% 30.29 in 10.0 mi NNW 4.6 mph - N/A   Clear
12:55 AM 12.2 °F 2.9 °F 10.4 °F 92% 30.29 in 10.0 mi West 5.8 mph - N/A   Scattered Clouds
1:15 AM 12.2 °F 1.7 °F 10.4 °F 92% 30.29 in 10.0 mi West 6.9 mph - N/A   Scattered Clouds
1:35 AM 12.2 °F 2.9 °F 10.4 °F 92% 30.29 in 10.0 mi WNW 5.8 mph - N/A   Scattered Clouds
1:55 AM 12.2 °F 4.3 °F 10.4 °F 92% 30.30 in 10.0 mi NW 4.6 mph - N/A   Scattered Clouds
2:15 AM 12.2 °F 2.9 °F 10.4 °F 92% 30.30 in 10.0 mi NW 5.8 mph - N/A   Scattered Clouds
2:35 AM 12.2 °F 4.3 °F 10.4 °F 92% 30.31 in 10.0 mi WNW 4.6 mph - N/A   Clear
2:55 AM 12.2 °F 2.9 °F 10.4 °F 92% 30.31 in 10.0 mi West 5.8 mph - N/A   Clear
3:15 AM 12.2 °F 1.7 °F 10.4 °F 92% 30.31 in 10.0 mi West 6.9 mph - N/A   Clear
3:35 AM 12.2 °F 1.7 °F 10.4 °F 92% 30.32 in 10.0 mi NNW 6.9 mph - N/A   Scattered Clouds
3:55 AM 12.2 °F 4.3 °F 10.4 °F 92% 30.31 in 10.0 mi NNW 4.6 mph - N/A   Scattered Clouds
4:15 AM 12.2 °F 6.1 °F 10.4 °F 92% 30.31 in 10.0 mi WNW 3.5 mph - N/A   Scattered Clouds
4:35 AM 12.2 °F - 10.4 °F 92% 30.31 in 10.0 mi Calm Calm - N/A   Clear
4:55 AM 12.2 °F - 10.4 °F 92% 30.32 in 10.0 mi Calm Calm - N/A   Clear
5:15 AM 12.2 °F 6.1 °F 10.4 °F 92% 30.32 in 10.0 mi West 3.5 mph - N/A   Mostly Cloudy
5:35 AM 12.2 °F 6.1 °F 10.4 °F 92% 30.33 in 10.0 mi WNW 3.5 mph - N/A   Mostly Cloudy
5:55 AM 14.0 °F 8.2 °F 12.2 °F 93% 30.33 in 10.0 mi WNW 3.5 mph - N/A   Overcast
6:15 AM 14.0 °F 8.2 °F 12.2 °F 93% 30.34 in 10.0 mi West 3.5 mph - N/A   Overcast
6:35 AM 15.8 °F 8.6 °F 12.2 °F 86% 30.34 in 10.0 mi WNW 4.6 mph - N/A   Overcast
6:55 AM 15.8 °F 10.2 °F 12.2 °F 86% 30.34 in 10.0 mi WNW 3.5 mph - N/A   Overcast
7:15 AM 17.6 °F - 14.0 °F 86% 30.34 in 10.0 mi Calm Calm - N/A   Overcast
7:35 AM 17.6 °F 12.3 °F 14.0 °F 86% 30.33 in 10.0 mi West 3.5 mph - N/A   Overcast
7:55 AM 17.6 °F 12.3 °F 15.8 °F 93% 30.33 in 10.0 mi WNW 3.5 mph - N/A   Mostly Cloudy
8:15 AM 17.6 °F 12.3 °F 15.8 °F 93% 30.34 in 10.0 mi NW 3.5 mph - N/A   Clear
8:35 AM 19.4 °F 14.3 °F 17.6 °F 93% 30.33 in 10.0 mi North 3.5 mph - N/A   Scattered Clouds
8:55 AM 21.2 °F 16.4 °F 17.6 °F 86% 30.34 in 10.0 mi NW 3.5 mph - N/A   Scattered Clouds
9:15 AM 23.0 °F 18.4 °F 17.6 °F 80% 30.34 in 10.0 mi West 3.5 mph - N/A   Mostly Cloudy
9:35 AM 23.0 °F 18.4 °F 17.6 °F 80% 30.34 in 10.0 mi NW 3.5 mph - N/A   Overcast
9:55 AM 23.0 °F 18.4 °F 19.4 °F 86% 30.35 in 10.0 mi NW 3.5 mph - N/A   Overcast
10:15 AM 24.8 °F 19.1 °F 17.6 °F 74% 30.35 in 10.0 mi West 4.6 mph - N/A   Overcast
10:35 AM 26.6 °F 21.2 °F 17.6 °F 69% 30.34 in 10.0 mi West 4.6 mph - N/A   Overcast
10:55 AM 26.6 °F 22.6 °F 19.4 °F 74% 30.33 in 10.0 mi West 3.5 mph - N/A   Overcast
11:15 AM 28.4 °F 23.3 °F 19.4 °F 69% 30.33 in 10.0 mi WNW 4.6 mph - N/A   Overcast
11:35 AM 28.4 °F - 19.4 °F 69% 30.32 in 10.0 mi Calm Calm - N/A   Overcast
11:55 AM 28.4 °F 24.6 °F 19.4 °F 69% 30.31 in 10.0 mi West 3.5 mph - N/A   Overcast
12:15 PM 30.2 °F - 17.6 °F 60% 30.31 in 10.0 mi Calm Calm - N/A   Overcast
12:35 PM 30.2 °F - 19.4 °F 64% 30.29 in 10.0 mi Calm Calm - N/A   Overcast
12:55 PM 30.2 °F - 19.4 °F 64% 30.29 in 10.0 mi Calm Calm - N/A   Overcast
1:15 PM 30.2 °F - 19.4 °F 64% 30.29 in 10.0 mi Calm Calm - N/A   Overcast
1:35 PM 30.2 °F 25.4 °F 21.2 °F 69% 30.29 in 10.0 mi WNW 4.6 mph - N/A   Overcast
1:55 PM 30.2 °F 25.4 °F 21.2 °F 69% 30.29 in 10.0 mi WNW 4.6 mph - N/A   Overcast
2:15 PM 30.2 °F - 21.2 °F 69% 30.29 in 10.0 mi Calm Calm - N/A   Overcast
2:35 PM 30.2 °F 26.7 °F 21.2 °F 69% 30.29 in 10.0 mi NW 3.5 mph - N/A   Overcast
2:55 PM 30.2 °F 25.4 °F 23.0 °F 75% 30.29 in 10.0 mi WNW 4.6 mph - N/A   Overcast
3:15 PM 30.2 °F 26.7 °F 23.0 °F 75% 30.29 in 10.0 mi NNW 3.5 mph - N/A   Overcast
3:35 PM 30.2 °F 26.7 °F 21.2 °F 69% 30.29 in 10.0 mi NNW 3.5 mph - N/A   Overcast
3:55 PM 30.2 °F 26.7 °F 23.0 °F 75% 30.29 in 10.0 mi North 3.5 mph - N/A   Overcast
4:15 PM 30.2 °F 25.4 °F 23.0 °F 75% 30.29 in 10.0 mi NW 4.6 mph - N/A   Overcast
4:35 PM 30.2 °F - 23.0 °F 75% 30.29 in 10.0 mi Calm Calm - N/A   Overcast
4:55 PM 30.2 °F - 23.0 °F 75% 30.29 in 10.0 mi Calm Calm - N/A   Overcast
5:15 PM 30.2 °F 26.7 °F 23.0 °F 75% 30.28 in 10.0 mi West 3.5 mph - N/A   Overcast
5:35 PM 30.2 °F 26.7 °F 23.0 °F 75% 30.28 in 10.0 mi WNW 3.5 mph - N/A   Overcast
5:55 PM 30.2 °F 26.7 °F 23.0 °F 75% 30.29 in 10.0 mi West 3.5 mph - N/A   Overcast
6:15 PM 30.2 °F - 23.0 °F 75% 30.28 in 10.0 mi Calm Calm - N/A   Overcast
6:35 PM 30.2 °F - 23.0 °F 75% 30.28 in 10.0 mi Calm Calm - N/A   Mostly Cloudy
6:55 PM 28.4 °F - 23.0 °F 80% 30.29 in 10.0 mi Calm Calm - N/A   Overcast
7:15 PM 28.4 °F - 23.0 °F 80% 30.29 in 10.0 mi Calm Calm - N/A   Overcast
7:35 PM 30.2 °F - 24.8 °F 80% 30.29 in 10.0 mi Calm Calm - N/A   Overcast
7:55 PM 28.4 °F - 24.8 °F 86% 30.29 in 10.0 mi Calm Calm - N/A   Overcast
8:15 PM 28.4 °F - 23.0 °F 80% 30.29 in 10.0 mi Calm Calm - N/A   Overcast
8:35 PM 28.4 °F - 23.0 °F 80% 30.27 in 10.0 mi Calm Calm - N/A   Overcast
8:55 PM 28.4 °F - 24.8 °F 86% 30.27 in 10.0 mi Calm Calm - N/A   Overcast
9:15 PM 30.2 °F - 24.8 °F 80% 30.27 in 10.0 mi Calm Calm - N/A   Overcast
9:35 PM 28.4 °F - 24.8 °F 86% 30.27 in 10.0 mi Calm Calm - N/A   Overcast
9:55 PM 30.2 °F - 24.8 °F 80% 30.27 in 10.0 mi Calm Calm - N/A   Overcast
10:15 PM 30.2 °F - 24.8 °F 80% 30.26 in 10.0 mi Calm Calm - N/A   Overcast
10:35 PM 30.2 °F - 26.6 °F 86% 30.25 in 10.0 mi Calm Calm - N/A   Overcast
10:55 PM 30.2 °F - 26.6 °F 86% 30.24 in 10.0 mi Calm Calm - N/A   Overcast
11:15 PM 30.2 °F - 26.6 °F 86% 30.24 in 10.0 mi Calm Calm - N/A   Overcast
11:35 PM 30.2 °F - 28.4 °F 93% 30.24 in 10.0 mi Calm Calm - N/A   Overcast
11:55 PM 30.2 °F - 28.4 °F 93% 30.23 in 4.0 mi Calm Calm - N/A Snow Light Snow